カタログに戻る

ATLAS 5 CENTAUR R/B

運用中VLEO
NORAD 37937·ROCKET BODY·🇺🇸 United States

打ち上げ Nov 26, 2011 から Cape Canaveral Space Force Station

Loading…

次のパス (今後24時間)

TLE

古いSource: Space-Track

元期: Nov 26, 2011, 15:32 UTC

1 37937U 11070B   11330.64727546 +.00002129 -67248-5 +00000-0 0  9994
2 37937 028.9400 110.9743 0076526 212.2200 357.6640 16.12595291000006

AllMySatでATLAS 5 CENTAUR R/Bをリアルタイム追跡

Download on the App Store